This demonstration page uses our WeatherBlox Daily Observations layout. Learn more.

38.88101, -77.10428

Hourly Observations for April 21, 2020

Temp ( °F °C ) Dew Point ( °F °C ) Humidity (%) Winds ( mph kmh ) Pressure ( in mb ) Visibility ( mi km ) Precip ( " mm )
12:52 am 00:52 Partly Cloudy 52 11.1 46 7.8 80 80 S 10 17 29.72 1006 10 16.0934 0 0
1:52 am 01:52 Partly Cloudy 52 11.1 47 8.3 83 83 SSW 10 17 29.7 1006 10 16.0934 0 0
2:52 am 02:52 Mostly Cloudy 50 10 45 7.2 83 83 SSW 8 13 29.68 1005 10 16.0934 0 0
3:52 am 03:52 Partly Cloudy 51 10.6 47 8.3 86 86 S 12 19 29.67 1005 10 16.0934 0 0
4:52 am 04:52 Mostly Clear 50 10 46 7.8 86 86 S 10 17 29.65 1004 10 16.0934 0 0
5:52 am 05:52 Mostly Clear 49 9.4 46 7.8 90 90 S 9 15 29.65 1004 10 16.0934 0 0
6:52 am 06:52 Mostly Sunny 50 10 47 8.3 89 89 S 9 15 29.64 1004 10 16.0934 0 0
7:52 am 07:52 Mostly Sunny 52 11.1 48 8.9 86 86 SSW 5 7 29.63 1004 10 16.0934 0 0
8:52 am 08:52 Mostly Cloudy 53 11.7 48 8.9 83 83 S 13 20 29.61 1003 10 16.0934 0 0
9:52 am 09:52 Mostly Cloudy 56 13.3 47 8.3 72 72 S 10 17 29.59 1002 10 16.0934 0 0
10:52 am 10:52 Cloudy 57 13.9 48 8.9 72 72 S 9 15 29.57 1002 10 16.0934 0.001 0.001
11:52 am 11:52 Partly Cloudy 62 16.7 48 8.9 60 60 S 14 22 29.54 1000 10 16.0934 0 0
12:23 pm 12:23 Mostly Cloudy 67 19.4 45 7.2 45 45 SSW 20 31 29.52 1000 10 16.0934 0 0
12:52 pm 12:52 Cloudy 68 20 44 6.7 42 42 SW 16 26 29.5 999 10 16.0934 0 0
1:22 pm 13:22 Cloudy with Light Rain 65 18.3 43 6.1 45 45 WSW 37 59 29.51 999 9 14.48406 0.001 0.001
1:38 pm 13:38 Cloudy with Rain 61 16.1 45 7.2 56 56 W 24 39 29.53 1000 5 8.0467 0.001 0.001
1:52 pm 13:52 Mostly Cloudy 63 17.2 47 8.3 56 56 WSW 16 26 29.52 1000 10 16.0934 0.02 0.508
2:22 pm 14:22 Mostly Cloudy 61 16.1 44 6.7 54 54 NW 29 46 29.55 1001 10 16.0934 0 0
2:52 pm 14:52 Mostly Cloudy 59 15 40 4.4 49 49 NW 18 30 29.56 1001 10 16.0934 0 0
3:52 pm 15:52 Mostly Cloudy 62 16.7 37 2.8 40 40 WNW 18 30 29.55 1001 10 16.0934 0.001 0.001
4:52 pm 16:52 Mostly Cloudy 66 18.9 35 1.7 32 32 W 15 24 29.54 1000 10 16.0934 0 0
5:52 pm 17:52 Mostly Cloudy 66 18.9 31 -0.6 27 27 WNW 14 22 29.57 1002 10 16.0934 0 0
6:52 pm 18:52 Partly Cloudy 63 17.2 23 -5 22 22 WNW 23 37 29.62 1003 10 16.0934 0 0
7:52 pm 19:52 Mostly Clear 59 15 21 -6.1 23 23 NW 17 28 29.68 1005 10 16.0934 0 0
8:52 pm 20:52 Mostly Clear 52 11.1 24 -4.4 34 34 NNW 26 43 29.76 1008 10 16.0934 0 0
9:52 pm 21:52 Mostly Clear 50 10 22 -5.6 33 33 NNW 21 33 29.81 1009 10 16.0934 0 0
10:52 pm 22:52 Partly Cloudy 48 8.9 22 -5.6 36 36 NW 20 31 29.83 1010 10 16.0934 0 0
11:52 pm 23:52 Mostly Clear 47 8.3 21 -6.1 36 36 NW 12 19 29.85 1011 10 16.0934 0 0

Powered by AerisWeather